Flag for Germany Weather past 2 weeks in Radolfzell am Bodensee, Baden-Württemberg, Germany

Now
61 °F

Overcast.


Feels Like: 61 °F
Forecast: 42 / 71 °F
Wind: 1 mph from Northwest

Location: Konstanz

Current Time: Aug 20, 2014 at 11:03:28 PM

Latest Report: Aug 20, 2014 at 10:00 PM


Visibility: 44 mi

Pressure: 30.00 "Hg

Humidity: 67%

Dew point: 50 °F

Location of Radolfzell am BodenseeLocation

Historic Weather in Radolfzell am Bodensee — Graph

°F

Radolfzell am Bodensee temperature yesterday

Maximum temperature yesterday: 70 °F (at 6:00 PM)
Minimum temperature yesterday: 56 °F (at 5:00 AM)
Average temperature yesterday: 62 °F

Past Weeks' High & Low Weather Summary

 TemperatureHumidityPressure
High83 °F (Aug 10, 6:00 PM)97% (Aug 17, 7:00 AM)30.21 "Hg (Aug 17, 7:00 AM)
Low48 °F (Aug 17, 7:00 AM)36% (Aug 6, 4:00 PM)29.66 "Hg (Aug 13, 1:00 PM)
Average64 °F73%29.96 "Hg
* Reported Aug 5 10:00 PM — Aug 20 10:00 PM, Radolfzell am Bodensee, Weather by CustomWeather, © 2014

Note: Actual official high and low records may vary slightly from our data, if they occured in-between our weather recording intervals... More about our weather records

Advertising

Radolfzell am Bodensee weather history for previous 24 hours

 ConditionsComfort  
Time TempWeatherWind HumidityBarometerVisibility
10:00 PM
Aug 20
61 °FOvercast.1 mph67%30.00 "Hg43 mi
9:00 PM62 °FOvercast.1 mph64%29.97 "Hg43 mi
8:00 PM63 °FOvercast.2 mph68%29.97 "Hg34 mi
7:00 PM64 °FPartly sunny.2 mph61%29.97 "Hg43 mi
6:00 PM65 °FPassing clouds.2 mph55%29.96 "Hg43 mi
5:00 PM66 °FOvercast.2 mph51%29.97 "Hg37 mi
4:00 PM66 °FOvercast.2 mph51%29.97 "Hg37 mi
3:00 PM69 °FOvercast.2 mph50%29.98 "Hg37 mi
2:00 PM64 °FOvercast.2 mph60%30.00 "Hg37 mi
1:00 PM64 °FOvercast.2 mph57%30.01 "Hg37 mi
12:00 PM64 °FOvercast.2 mph58%30.01 "Hg37 mi
11:00 AM61 °FOvercast.2 mph63%30.02 "Hg37 mi
10:00 AM59 °FOvercast.2 mph72%30.03 "Hg37 mi
9:00 AM58 °FOvercast.2 mph75%30.02 "Hg37 mi
8:00 AM57 °FOvercast.2 mph75%30.02 "Hg43 mi
7:00 AM56 °FOvercast.2 mph74%30.02 "Hg43 mi
6:00 AM58 °FOvercast.1 mph73%30.02 "Hg37 mi
5:00 AM58 °FOvercast.2 mph69%30.02 "Hg43 mi
4:00 AM58 °FOvercast.1 mph75%30.01 "Hg43 mi
3:00 AM59 °FOvercast.1 mph72%30.00 "Hg43 mi
2:00 AM59 °FOvercast.2 mph68%30.00 "Hg43 mi
1:00 AM60 °FOvercast.1 mph69%30.00 "Hg43 mi
12:00 AM61 °FOvercast.1 mph64%30.00 "Hg43 mi
11:00 PM
Aug 19
62 °FOvercast.2 mph60%29.99 "Hg43 mi
Weather by CustomWeather, © 2014

See weather overviewHow to use our weather pages